Location: Kuppenheim
(48.8299°N, 8.2568°E)
Time: 08:10:22
(UTC+00:00)

N. Korean satellite - Pass Details

Date: 01 December 2022
Orbit: 407 x 442 km, 97.3° (Epoch: 04 February)

Event Time Altitude Azimuth Distance (km) Brightness Sun altitude
Rises 05:25:57 0° 5° (N) 2,529 10.1 -14.6°
Reaches altitude 10° 05:28:07 10° 357° (N) 1,645 9.0 -14.3°
Maximum altitude 05:31:23 36° 290° (WNW) 762 7.0 -13.8°
Drops below altitude 10° 05:34:36 10° 222° (SW) 1,617 9.0 -13.3°
Sets 05:36:43 0° 214° (SW) 2,480 10.0 -13.0°
